Weather History for Rifle, CO

Change the Weather History Date:

Friday, February 17, 2012

  Actual Average Record
Temperature  
Mean Temperature 32 °F 31 °F  
Max Temperature 46 °F 43 °F 62 °F (1977)
Min Temperature 18 °F 20 °F -8 °F (1939)
Degree Days  
Heating Degree Days 33 34  
Month to date heating degree days 554 614  
Since 1 July heating degree days 4366 4649  
Cooling Degree Days 0 0  
Month to date cooling degree days 0  
Year to date cooling degree days 0  
Moisture  
Dew Point 17 °F    
Average Humidity 56    
Maximum Humidity 84    
Minimum Humidity 28    
Precipitation  
Precipitation 0.00 in 0.03 in 0.36 in (1962)
Month to date precipitation 0.23 0.45  
Year to date precipitation 0.80 1.26  
Sea Level Pressure  
Sea Level Pressure 30.20 in    
Wind  
Wind Speed 3 mph (WNW)    
Max Wind Speed 21 mph    
Max Gust Speed 23 mph    
Visibility 10 miles    
Events      
T = Trace of Precipitation, MM = Missing Value Source: NWS Daily Summary

Daily Weather History Graph

Daily Weather History Graph

Search for Another Location

Airport:

Trip Planner

Search our weather history database for the weather conditions in past years. The results will help you decide how hot, cold, wet, or windy it might be!

Date:

Astronomy

Feb. 17, 2012 Rise Set
Actual Time 7:01 AM MST 5:49 PM MST
Civil Twilight 6:33 AM MST 6:16 PM MST
Nautical Twilight 6:02 AM MST 6:48 PM MST
Astronomical Twilight 5:31 AM MST 7:19 PM MST
Moon 3:54 AM MST (2/17) 1:46 PM MST (2/17)
Length of Visible Light 11h 43m
Length of Day
10h 48m
Waning Crescent, 18% of the Moon is Illuminated
Feb 17
Waning Crescent
Feb 21
New
Feb 29
First Quarter
Mar 8
Full
Mar 14
Last Quarter

Hourly Weather History & Observations

Time (MST) Temp. Windchill Dew Point Humidity Pressure Visibility Wind Dir Wind Speed Gust Speed Precip Events Conditions
12:53 AM 25.0 °F 19.3 °F 18.0 °F 75% 30.23 in 10.0 mi ESE 4.6 mph - N/A   Clear
1:53 AM 24.1 °F 19.7 °F 17.1 °F 75% 30.21 in 10.0 mi SE 3.5 mph - N/A   Clear
3:53 AM 21.9 °F - 17.1 °F 82% 30.20 in 10.0 mi Calm Calm - N/A   Clear
4:53 AM 21.0 °F - 16.0 °F 81% 30.22 in 10.0 mi Calm Calm - N/A   Clear
5:53 AM 19.0 °F - 15.1 °F 85% 30.25 in 10.0 mi Calm Calm - N/A   Clear
6:53 AM 18.0 °F - 14.0 °F 84% 30.27 in 10.0 mi Calm Calm - N/A   Clear
7:53 AM 21.9 °F - 17.1 °F 82% 30.27 in 10.0 mi Calm Calm - N/A   Clear
8:53 AM 25.0 °F - 19.0 °F 78% 30.29 in 10.0 mi Calm Calm - N/A   Clear
9:53 AM 30.0 °F - 16.0 °F 56% 30.26 in 10.0 mi Calm Calm - N/A   Partly Cloudy
10:53 AM 34.0 °F - 15.1 °F 46% 30.23 in 10.0 mi Calm Calm - N/A   Mostly Cloudy
11:53 AM 37.9 °F - 15.1 °F 39% 30.19 in 10.0 mi Calm Calm - N/A   Mostly Cloudy
12:53 PM 41.0 °F - 18.0 °F 40% 30.14 in 10.0 mi Calm Calm - N/A   Clear
2:53 PM 46.0 °F 41.4 °F 17.1 °F 31% 30.08 in 10.0 mi West 9.2 mph - N/A   Scattered Clouds
3:53 PM 42.1 °F 34.2 °F 15.1 °F 34% 30.12 in 10.0 mi NNW 16.1 mph 21.9 mph N/A   Mostly Cloudy
5:53 PM 37.0 °F 33.3 °F 16.0 °F 42% 30.17 in 10.0 mi NNW 4.6 mph - N/A   Overcast
6:53 PM 36.0 °F 31.1 °F 18.0 °F 48% 30.19 in 10.0 mi WNW 5.8 mph - N/A   Overcast
7:53 PM 35.1 °F 31.0 °F 18.0 °F 50% 30.18 in 10.0 mi West 4.6 mph - N/A   Overcast
8:53 PM 32.0 °F - 19.0 °F 59% 30.19 in 10.0 mi Calm Calm - N/A   Overcast
9:53 PM 30.0 °F 25.2 °F 19.0 °F 64% 30.19 in 10.0 mi SSE 4.6 mph - N/A   Scattered Clouds
10:53 PM 26.1 °F - 19.0 °F 75% 30.19 in 10.0 mi Calm Calm - N/A   Partly Cloudy
11:53 PM 26.1 °F 21.9 °F 18.0 °F 71% 30.18 in 10.0 mi ENE 3.5 mph - N/A   Clear